Regional Weather Roundup
Issued by NWS

Home | Current Version | Previous Version | Text Only | Print | Product List | Glossary On
Versions: 1 2 3 4 5 6 7 8 9 10 11 12 13 14 15 16 17 18 19 20 21 22 23 24 25 26 27 28 29 30 31 32 33 34 35 36 37 38 39 40 41 42 43 44 45 46 47 48 49 50
000
ASCA44 KEWX 200720
RWRMX

LATIN AMERICA AND CARIBBEAN REGIONAL WEATHER ROUNDUP
NATIONAL WEATHER SERVICE AUSTIN/SAN ANTONIO TX
200 AM CDT WED AUG 20 2014

NOTE: "FAIR" INDICATED FEW OR NO CLOUDS BELOW 12,000 FEET WITH NO
SIGNIFICANT WEATHER AND/OR OBSTRUCTIONS TO VISIBILITY.

BAJA CALIFORNIA

CITY           SKY/WX    TMP DP  RH WIND       PRES   REMARKS
LA PAZ           N/A    N/A N/A N/A MISG        N/A
TIJUANA        PTCLDY    66  57  72 W6        29.92S

NORTHWESTERN MEXICO

CITY           SKY/WX    TMP DP  RH WIND       PRES   REMARKS

NORTHEASTERN MEXICO

CITY           SKY/WX    TMP DP  RH WIND       PRES   REMARKS
MONTERREY      CLEAR     81  66  61 E16       29.87F
REYNOSA        CLEAR     79  72  78 SE9       29.86F
CD. VICTORIA   CLEAR     79  72  78 S16       29.90F

WESTERN MEXICO

CITY           SKY/WX    TMP DP  RH WIND       PRES   REMARKS
GUADALAJARA    PTCLDY    63  59  88 CALM      30.20S
MAZATLAN       CLOUDY    73  72  94 S7        29.89S
P. VALLARTA    CLOUDY    75  72  88 CALM      29.90

CENTRAL MEXICO

CITY           SKY/WX    TMP DP  RH WIND       PRES   REMARKS
MEXICO CITY    MOCLDY    59  54  82 E5        30.32F
QUERETARO      PTCLDY    63  55  77 CALM      30.30S
S. LUIS POTOSI MOCLDY    63  52  67 SE7       30.24S
TOLUCA         PTCLDY    48  46  93 CALM      30.40F

SOUTHERN MEXICO

CITY           SKY/WX    TMP DP  RH WIND       PRES   REMARKS
ACAPULCO       PTCLDY    81  77  89 E3        29.87F

YUCATAN PENINSULA

CITY           SKY/WX    TMP DP  RH WIND       PRES   REMARKS
CANCUN         PTCLDY    82  79  89 E6        29.98F HX  93
COZUMEL        PTCLDY    75  75 100 CALM      29.98F
MERIDA         MOCLDY    75  70  83 SE8       29.95F
TAPACHULA      MOCLDY    79  73  83 CALM      29.88R

CENTRAL AMERICA

CITY           SKY/WX    TMP DP  RH WIND       PRES   REMARKS
MANAGUA        LGT RAIN N/A N/A N/A SE9         N/A

CARIBBEAN

CITY           SKY/WX    TMP DP  RH WIND       PRES   REMARKS
ARUBA          PTCLDY    82  77  83 E16       29.86S HX  91
CURACAO        PTCLDY    82  77  83 E12       29.89S HX  91
KINGSTON       PTCLDY    84  75  74 N8        29.92F HX  92
SAN JUAN       LGT RAIN  79  77  94 S3        29.97F
SANTO DOMINGO  PTCLDY    75  72  88 N5        29.94F
ST. MAARTEN    PTCLDY    82  75  78 E9        29.94S

$$



USA.gov is the U.S. government's official web portal to all federal, state and local government web resources and services.